Location: Newark
(52.2712°N, 35.2148°E)
Time: 14:58:20
(UTC+00:00)

X-37B - Visible Passes

Search period start: 29 September 2020 00:00
Search period end: 09 October 2020 00:00
Orbit: 386 x 387 km, 45.0° (Epoch: 18 September)

Date Brightness Start Highest point End Pass type
(mag) Time Alt. Az. Time Alt. Az. Time Alt. Az.
04 Oct 3.3 17:19:08 10° SSW 17:19:29 12° SSW 17:19:29 12° SSW visible
05 Oct 2.7 16:21:18 10° SSW 16:23:00 14° SSE 16:23:38 13° SSE visible
06 Oct 2.5 16:58:08 10° SW 16:59:59 19° S 16:59:59 19° S visible
07 Oct 2.6 16:00:01 10° SSW 16:02:12 17° SSE 16:04:00 12° SE visible
07 Oct 3.4 17:35:41 10° WSW 17:36:16 13° SW 17:36:16 13° SW visible
08 Oct 2.2 16:37:17 10° SW 16:39:50 22° S 16:40:16 21° SSE visible
